Hourly Data Report for October 07, 2019

All times are specified in Local Standard Time (LST). Add 1 hour to adjust for Daylight Saving Time where and when it is observed.

WOODSTOCK NEWBRIDGE
NEW BRUNSWICK
Current Station Operator: ECCC - MSC

46°09'08.000" N
67°32'34.000" W
154.00 m
8105603
71606
EWD

Download Data

Hourly Data (October 2019)
Hourly Data Report for October 7, 2019
TIME Temp Definition
°C
Dew Point Definition
°C
Rel Hum Definition
%
Wind Dir Definition
10's deg

Wind Spd Definition
km/h
Visibility Definition
km
Stn Press Definition
kPa
Hmdx Definition


Wind Chill Definition


Weather Definition


00:00 12.3 10.5 89 15 8   100.29     LegendNANA
01:00 12.5 11.2 92 16 8   100.27     LegendNANA
02:00 12.8 12.2 96 17 10   100.21     LegendNANA
03:00 13.2 12.7 97 18 6   100.17     LegendNANA
04:00 13.4 13.0 97 17 8   100.10     LegendNANA
05:00 13.7 13.2 97 15 6   100.09     LegendNANA
06:00 13.9 13.6 98 16 8   100.10     LegendNANA
07:00 14.0 13.7 98 17 7   100.11     LegendNANA
08:00 14.3 14.0 99 16 5   100.08     LegendNANA
09:00 14.5 14.2 98 23 3   100.09     LegendNANA
10:00 14.7 14.4 98 15 1   100.05     LegendNANA
11:00 15.1 14.8 98 13 3   100.00     LegendNANA
12:00 15.5 15.0 97 17 3   99.93     LegendNANA
13:00 15.0 14.4 96 26 3   99.92     LegendNANA
14:00 12.4 11.4 94 29 12   99.96     LegendNANA
15:00 12.3 11.6 96 28 5   99.99     LegendNANA
16:00 11.8 11.1 95 25 5   99.99     LegendNANA
17:00 11.5 11.0 97 23 4   99.98     LegendNANA
18:00 11.2 10.8 97 23 3   100.04     LegendNANA
19:00 10.8 10.4 97 18 2   100.07     LegendNANA
20:00 10.6 10.2 97 19 3   100.09     LegendNANA
21:00 10.4 10.0 97 14 4   100.05     LegendNANA
22:00 10.3 9.9 98 22 5   100.05     LegendNANA
23:00 10.2 9.9 98 18 4   100.09     LegendNANA

Notes on Data Quality.

Legend

  • E = Estimated
  • M = Missing
  • NA = Not Available
Date modified: